Regional Weather Roundup
Issued by NWS

Home | Current Version | Previous Version | Graphics & Text | Print | Product List | Glossary On
Versions: 1 2 3 4 5 6 7 8 9 10 11 12 13 14 15 16 17 18 19 20 21 22 23 24 25 26 27 28 29 30 31 32 33 34 35 36 37 38 39 40 41 42 43 44 45 46 47 48 49 50
000
ASUS43 KDMX 250806
RWRIA

WEATHER ROUNDUP FOR IOWA
NATIONAL WEATHER SERVICE DES MOINES IA
300 AM CDT FRI MAY 25 2018

NOTE: "FAIR" INDICATES FEW OR NO CLOUDS BELOW 12,000 FEET WITH NO
SIGNIFICANT WEATHER AND/OR OBSTRUCTIONS TO VISIBILITY.

* - THESE STATIONS ARE NOT NWS STATIONS...THUS NOT UNDER NWS
QUALITY CONTROL.  THEY ALSO DO NOT REPORT WEATHER SUCH
AS PRECIPITATION OR FOG.

IAZ001>003-012>014-020>022-031>034-043>046-250900-
   NORTHWEST IOWA

CITY           SKY/WX    TMP DP  RH WIND       PRES   REMARKS
CARROLL *      CLOUDY    72  63  73 SW13      29.89F
CHEROKEE *     CLOUDY    70  64  83 S6        29.87F
DENISON *      CLOUDY    70  63  78 VRB6      29.91F
LE MARS *      CLOUDY    73  64  73 S10       29.86S
ORANGE CITY *  CLOUDY    73  66  78 S9        29.87S
SHELDON *      CLOUDY    72  68  88 S13       29.85S
SIOUX CITY     CLOUDY    71  63  75 E5        29.86S
SPENCER        MOCLDY    71  64  78 S12       29.85F
STORM LAKE *   CLOUDY    68  63  83 S13       29.89F
$$

IAZ055>058-069>071-079>083-090>094-250900-
   SOUTHWEST IOWA

CITY           SKY/WX    TMP DP  RH WIND       PRES   REMARKS
ATLANTIC *     CLOUDY    70  63  78 SW8       29.91S
AUDUBON *      CLOUDY    70  63  78 SW6       29.92F
CLARINDA *     CLOUDY    68  63  83 S3        29.93F
COUNCIL BLFS * CLOUDY    68  68 100 S8        29.89F
CRESTON *      CLOUDY    66  63  88 S9        29.94F
HARLAN  *      CLOUDY    68  63  83 SW5       29.94S
LAMONI         CLOUDY    69  64  84 S7        29.94F
RED OAK *      PTCLDY    68  63  83 S8        29.91S
SHENANDOAH *   PTCLDY    68  63  83 S6        29.91F
$$

IAZ047>049-059>061-072>074-084-250900-
   CENTRAL IOWA

CITY           SKY/WX    TMP DP  RH WIND       PRES   REMARKS
AMES           MOCLDY    69  65  86 SE6       29.91F
ANKENY *       MOCLDY    70  64  83 CALM      29.93F
BOONE *        PTCLDY    72  64  78 S6        29.90F
CHARITON *     PTCLDY    68  66  94 S5        29.94F
DES MOINES     MOCLDY    70  65  84 S7        29.91F
GRINNELL*      PTCLDY    71  64  79 S7        29.96S
KNOXVILLE *    CLOUDY    70  64  83 S6        29.93F
MARSHALLTOWN   PTCLDY    70  66  87 S9        29.92F
NEWTON *       MOCLDY    70  64  83 S6        29.94F
PELLA *        CLOUDY    69  64  83 S3        29.95F
PERRY *        FAIR      71  65  83 S9        29.90F
$$

IAZ004>006-015-016-023>025-035-036-250900-
   NORTH CENTRAL IOWA

CITY           SKY/WX    TMP DP  RH WIND       PRES   REMARKS
ALGONA *       CLOUDY    70  64  83 S12       29.88F
CLARION *      CLOUDY    70  64  83 S9        29.90F
ESTHERVILLE    PTCLDY    68  64  87 S12       29.86F
FORT DODGE *   CLOUDY    73  64  73 S10       29.90F
MASON CITY     PTCLDY    68  64  87 S6        29.91F
FOREST CITY *  FAIR      70  64  83 S6        29.89F
WEBSTER CITY * CLOUDY    72  64  78 S10       29.88F
IOWA FALLS *   FAIR      72  65  80 S9        29.93F
$$

IAZ007>011-017>019-026>030-037>042-050>054-066-250900-
   NORTHEAST IOWA

CITY           SKY/WX    TMP DP  RH WIND       PRES   REMARKS
CEDAR RAPIDS   FAIR      70  61  73 S5        29.94F
CHARLES CITY * FAIR      68  63  83 S8        29.91F
CLINTON *      FAIR      67  60  78 S5        29.97F
DECORAH *      FAIR      68  64  88 S6        29.92F
DUBUQUE        FAIR      66  58  75 S7        29.96F
MONTICELLO *   FAIR      68  61  77 CALM      29.95F
OELWEIN *      FAIR      68  64  88 S7        29.93F
WATERLOO       FAIR      69  64  84 S8        29.91F
$$

IAZ064-065-067-068-078-250900-
   EAST CENTRAL IOWA

CITY           SKY/WX    TMP DP  RH WIND       PRES   REMARKS
DAVENPORT      FAIR      69  59  70 S5        29.99F
IOWA CITY      FAIR      71  62  73 CALM      29.97F
MT. PLEASANT * CLOUDY    70  59  68 S3        29.97F
MUSCATINE *    FAIR      68  61  77 CALM      29.96F
QUAD CITIES    FAIR      65  60  84 CALM      29.96F
$$

IAZ062-063-075>077-085>089-095>099-250900-
   SOUTHEAST IOWA

CITY           SKY/WX    TMP DP  RH WIND       PRES   REMARKS
BURLINGTON     CLOUDY    73  61  65 S7        29.97F
FAIRFIELD *    CLOUDY    72  61  68 S5        29.96S
FORT MADISON * CLOUDY    73  63  68 S6        29.98F
KEOKUK *       CLOUDY    73  63  68 S3        29.97S
OSKALOOSA *    FAIR      70  65  84 S7        29.96F
CENTERVILLE *  FAIR      70  68  94 CALM      29.97F
OTTUMWA        CLOUDY    73  65  75 S7        29.95F
WASHINGTON *   CLOUDY    72  64  78 S7        29.97F
$$

ABBREVIATIONS USED IN REMARKS
   TC - TEMPERATURES IN CELSIUS
  WCI - WIND CHILL INDEX
   HX - HEAT INDEX
  VSB - VISIBILITY
$$




USA.gov is the U.S. government's official web portal to all federal, state and local government web resources and services.